Location: Riverton
(43.0250°N, 108.3790°W)
Time: 18:09:42
(UTC-07:00)

JAS-2 - Visible Passes

Search period start: 28 November 2014 00:00
Search period end: 08 December 2014 00:00
Orbit: 801 x 1321 km, 98.5° (Epoch: 27 November)

Date Brightness Start Highest point End Pass type
(mag) Time Alt. Az. Time Alt. Az. Time Alt. Az.
28 Nov 11.9 04:21:18 10° NE 04:26:28 22° E 04:31:11 10° SE visible
28 Nov 9.7 06:05:14 10° N 06:12:13 65° WNW 06:18:20 10° SSW visible
28 Nov 12.2 18:02:06 10° SSW 18:08:31 28° W 18:15:04 10° NW visible
29 Nov 10.4 05:10:25 10° NNE 05:17:11 53° E 05:23:07 10° S visible
29 Nov 10.8 17:05:30 10° S 17:13:09 63° W 17:20:57 10° NNW visible
29 Nov 13.0 18:57:09 10° W 18:59:33 12° W 19:01:58 10° WNW visible
30 Nov 12.0 04:16:43 10° NE 04:21:31 20° E 04:25:54 10° SE visible
30 Nov 9.6 06:00:27 10° N 06:07:21 69° WNW 06:13:23 10° SSW visible
30 Nov 12.1 17:57:05 10° SSW 18:03:40 30° W 18:10:22 10° NNW visible
01 Dec 10.5 05:05:41 10° NNE 05:12:16 49° E 05:18:02 10° S visible
01 Dec 10.4 06:51:08 10° N 06:56:59 31° WNW 07:02:16 10° WSW visible
01 Dec 10.7 17:00:38 10° S 17:08:22 67° W 17:16:09 10° NNW visible
01 Dec 12.9 18:51:36 10° WSW 18:54:39 13° W 18:57:43 10° WNW visible
02 Dec 12.1 04:12:10 10° NE 04:16:32 18° E 04:20:35 10° SE visible
02 Dec 9.5 05:55:40 10° N 06:02:29 73° WNW 06:08:25 10° SSW visible
02 Dec 12.0 17:52:05 10° SSW 17:58:50 32° W 18:05:38 10° NNW visible
03 Dec 10.6 05:00:58 10° NNE 05:07:20 45° E 05:12:57 10° SSE visible
03 Dec 10.3 06:46:19 10° N 06:52:09 32° WNW 06:57:24 10° WSW visible
03 Dec 12.9 18:46:12 10° WSW 18:49:46 14° W 18:53:19 10° NW visible
04 Dec 12.1 04:07:39 10° NE 04:11:34 17° E 04:15:13 10° ESE visible
04 Dec 9.5 05:50:53 10° N 05:57:35 78° WNW 06:03:26 10° SSW visible
04 Dec 11.9 17:47:07 10° SSW 17:54:01 34° W 18:00:53 10° NNW visible
05 Dec 10.7 04:56:14 10° NNE 05:02:23 41° E 05:07:50 10° SSE visible
05 Dec 10.2 06:41:29 10° N 06:47:18 34° WNW 06:52:31 10° SW visible
05 Dec 12.8 18:40:55 10° WSW 18:44:53 15° W 18:48:50 10° NW visible
06 Dec 12.2 04:03:11 10° NE 04:06:34 15° E 04:09:46 10° ESE visible
06 Dec 9.4 05:46:06 10° NNE 05:52:41 83° WNW 05:58:26 10° SSW visible
06 Dec 11.8 17:42:10 10° SSW 17:49:11 36° W 17:56:07 10° NNW visible
07 Dec 10.8 04:51:31 10° NNE 04:57:26 38° E 05:02:42 10° SSE visible
07 Dec 10.1 06:36:39 10° N 06:42:27 35° WNW 06:47:38 10° SW visible
07 Dec 12.8 18:35:41 10° WSW 18:40:00 16° W 18:44:17 10° NW visible
